Wind_Speed
4 4 3 2 2 0 2 1 1 1 1 2 4 3 3 2 3 7 6 6 6 8 9 7 5 7 9 11 12 10 8 4 2 1 3 8 18 19 18 23 23 22 21 20 17 16 18 17 16 16 16 17 17 17 17 17 15 14 13 15 16 16 17 18 19 21 21 20 19 18 17 16 17 16 15 14 15 17 15 14 14 13 14 14 13 13 12 12 12 12 11 10 9 9 7 6 6
5 5 3 1 1 2 1 1 1 1 0 3 3 2 6 5 4 6 7 7 7 10 11 10 9 10 15 15 13 11 10 8 8 7 8 18 20 18 22 22 22 22 20 20 18 16 16 17 17 16 16 16 17 17 17 17 17 14 13 14 16 16 17 18 19 20 20 20 20 20 19 18 18 18 16 16 16 16 15 14 14 13 13 13 13 12 12 12 11 10 9 9 8 8 7 6 5
7 4 4 3 3 1 1 1 0 1 2 3 1 2 5 7 7 8 8 10 11 14 12 10 10 9 12 12 9 9 7 8 12 11 11 19 17 17 22 21 22 21 20 19 19 17 15 17 18 16 16 16 17 16 16 16 17 16 14 13 13 14 16 17 18 18 18 18 18 18 18 18 18 18 17 17 17 16 15 14 13 13 13 12 12 12 11 11 10 10 9 8 8 7 6 6 5
6 4 4 4 1 2 1 1 1 1 3 3 1 3 4 7 8 8 9 10 11 13 11 9 9 7 10 12 8 7 7 7 11 11 10 15 16 20 22 21 21 19 19 19 19 17 15 18 19 17 16 16 17 16 15 15 16 17 16 13 11 12 13 15 17 17 16 16 15 16 16 16 16 16 16 16 15 15 14 14 13 13 13 12 12 12 11 10 9 9 9 8 7 7 6 6 6
6 4 2 2 1 1 0 2 1 2 2 3 1 4 5 7 7 8 8 8 9 11 12 9 9 9 10 10 5 5 7 8 10 11 11 16 19 23 22 21 20 19 19 19 19 16 17 20 17 16 15 15 16 16 15 15 15 16 16 14 12 11 12 13 15 16 16 15 14 14 14 14 15 14 14 14 13 13 13 13 13 13 12 12 12 11 10 10 9 9 8 8 7 7 6 6 6
6 1 2 4 2 2 1 2 2 2 2 2 1 3 4 6 6 7 8 8 9 11 13 10 11 12 9 9 6 5 6 7 9 11 15 19 22 23 22 21 20 20 20 19 19 16 19 19 16 16 15 14 16 15 15 14 15 16 16 16 14 12 12 12 14 15 15 15 14 13 13 13 13 13 13 13 13 12 12 12 12 12 12 11 11 10 10 9 9 9 8 8 7 7 7 6 6
8 3 2 2 1 3 2 2 2 2 2 2 1 3 4 7 4 5 6 6 8 10 12 10 12 12 8 7 7 4 4 5 8 13 19 22 23 23 21 20 20 21 20 19 18 17 18 17 16 15 13 14 14 14 14 14 14 15 16 16 14 12 12 12 12 14 15 15 14 13 13 13 12 12 13 12 12 12 12 11 11 11 11 11 10 10 9 9 8 8 8 8 7 7 6 6 5
6 3 1 1 0 3 2 2 1 2 1 4 2 4 4 7 4 4 4 3 6 7 10 11 11 10 9 9 5 2 4 7 12 18 22 24 24 22 20 20 20 19 19 19 18 17 17 17 17 15 13 13 13 13 13 14 14 15 15 15 15 14 13 12 12 13 13 14 14 13 13 12 12 12 12 12 11 11 11 11 11 11 10 10 10 9 9 8 8 8 7 7 6 6 6 5 5
4 3 3 1 1 3 2 1 1 1 2 5 3 4 4 6 5 5 4 6 6 6 9 10 11 11 12 14 7 3 7 12 18 22 22 23 23 20 20 19 20 20 20 20 18 17 17 17 17 15 13 13 13 12 12 14 13 14 15 15 15 16 14 13 12 11 11 12 13 13 13 12 11 11 11 11 10 10 10 10 10 10 10 9 9 8 8 8 7 7 6 6 6 5 5 4 4
4 4 2 0 1 4 1 0 1 1 4 5 3 5 5 5 5 5 4 6 5 6 12 12 12 13 14 15 9 6 11 17 22 22 21 22 21 19 19 18 19 20 21 21 18 17 16 17 16 15 13 12 12 11 12 14 13 12 14 16 16 16 15 14 12 11 10 11 12 13 13 13 12 11 10 10 10 10 10 9 9 9 9 8 8 7 7 7 6 6 6 5 5 4 4 4 4
4 3 2 1 2 5 2 1 0 2 3 4 4 6 6 5 4 4 4 3 5 7 11 11 11 11 13 12 6 10 17 19 21 22 22 21 20 19 19 19 19 20 21 21 19 17 16 16 16 15 14 13 12 12 13 14 13 12 13 15 15 15 15 14 12 11 10 10 12 12 13 13 13 12 11 11 10 9 9 9 9 8 8 7 7 6 6 6 5 5 5 5 4 4 3 4 4
4 1 1 0 1 3 0 1 1 1 4 3 3 6 7 6 4 3 5 3 5 7 7 8 10 10 11 10 7 14 20 18 19 21 21 20 20 19 19 19 19 20 21 20 20 18 15 15 15 16 15 13 13 13 13 13 12 12 13 14 14 15 14 14 13 11 10 10 11 11 11 12 12 12 12 11 11 10 8 9 8 8 7 7 6 6 5 5 4 4 4 4 3 3 3 3 3
4 5 4 1 2 2 1 1 1 3 4 0 2 5 7 7 5 5 5 5 5 6 8 10 13 11 9 9 9 15 18 19 22 22 21 20 19 19 19 19 20 20 20 20 20 19 16 14 14 15 15 14 13 13 13 12 12 11 13 14 14 14 14 14 13 11 10 9 10 10 10 11 11 11 11 11 11 9 8 8 8 7 7 6 6 5 5 4 4 4 4 3 3 3 2 2 2
4 5 6 2 2 3 1 1 2 3 2 2 0 3 5 3 4 6 4 3 4 6 8 12 14 11 10 10 9 11 16 22 27 26 25 22 19 20 20 20 20 19 19 19 19 19 16 14 13 14 15 14 14 13 13 12 12 12 13 14 14 14 14 13 12 11 10 9 9 9 9 10 10 9 10 10 10 9 8 7 7 7 6 6 5 5 4 4 4 3 3 2 2 2 2 2 2
4 4 5 3 1 2 0 1 2 3 2 3 1 3 3 1 2 6 4 2 4 7 5 9 9 8 9 11 9 10 19 25 30 31 27 24 20 20 21 20 20 19 18 19 18 18 16 15 14 14 14 14 14 13 12 13 12 12 13 15 14 14 14 13 12 11 11 10 9 9 8 8 9 8 8 8 8 8 7 6 6 7 6 6 5 5 5 4 4 3 3 2 3 3 3 3 3
5 5 4 3 3 3 3 2 3 3 1 3 2 3 3 1 2 3 3 6 2 5 2 3 4 7 10 11 14 17 24 25 30 35 28 24 22 18 18 17 18 17 16 16 16 16 17 17 15 15 15 15 15 14 12 12 13 12 12 14 14 14 14 12 11 10 11 11 11 10 9 8 8 7 7 6 6 7 6 6 6 7 7 6 6 5 5 5 4 4 3 4 4 5 5 4 4
4 5 3 3 4 4 5 4 3 3 2 2 2 3 2 2 1 2 4 8 2 4 3 6 6 9 11 14 21 24 27 25 27 34 27 23 21 18 16 15 16 16 15 14 14 15 16 17 16 16 16 16 16 15 13 12 13 13 12 12 12 12 12 11 11 11 11 11 12 11 10 10 10 8 8 7 7 7 7 6 7 8 8 7 7 6 6 6 5 5 4 5 6 5 5 5 5
3 4 3 4 4 2 5 6 4 3 1 3 1 3 2 1 2 3 4 8 5 4 6 9 9 13 16 20 26 26 27 27 26 29 27 22 18 16 16 15 14 15 15 14 14 15 16 16 16 16 16 16 16 15 14 13 14 14 12 12 11 11 11 11 11 11 11 11 12 11 11 11 10 9 10 9 9 9 9 7 7 8 9 8 7 7 7 6 5 5 4 4 4 4 5 5 5
3 3 3 2 1 2 3 5 4 3 1 3 1 3 4 3 4 6 5 7 7 3 8 10 11 15 18 21 25 24 24 25 24 25 24 23 20 17 16 17 15 15 16 14 15 16 15 16 16 16 16 17 17 15 13 13 14 14 14 13 12 11 11 12 12 11 11 11 11 11 11 11 10 10 11 10 10 9 8 7 6 7 8 8 7 7 6 6 4 3 3 3 4 5 6 6 6
3 3 1 2 2 3 2 2 2 2 2 2 1 5 6 4 4 4 4 4 6 3 5 9 11 15 17 18 21 23 23 23 22 21 20 21 21 18 17 19 18 15 16 16 16 16 15 16 17 16 16 17 16 14 13 14 15 14 14 13 13 12 12 12 12 13 12 12 12 11 11 10 10 11 11 11 10 10 8 6 7 7 7 8 7 7 6 5 4 4 4 4 5 5 5 6 7
3 4 3 7 5 3 4 2 0 1 2 2 3 6 2 3 2 1 3 1 2 4 2 8 11 14 16 17 18 19 19 20 21 20 19 20 21 18 16 18 18 17 16 17 16 16 16 16 17 17 17 18 16 14 14 13 14 13 13 13 13 13 13 12 12 13 11 12 13 11 11 10 10 11 12 12 11 11 9 6 8 8 8 8 8 8 6 5 5 5 5 5 5 5 6 8 10
6 7 8 11 9 5 5 3 2 1 2 2 5 3 1 3 2 1 4 3 2 5 2 9 11 14 15 16 16 16 16 17 18 19 20 19 20 20 18 17 17 18 17 16 17 17 17 17 17 17 17 17 15 14 14 14 14 12 13 13 13 14 13 12 12 11 11 12 11 11 11 10 12 11 11 12 10 11 10 8 8 9 9 9 9 9 6 6 7 6 5 6 6 6 9 9 11
5 6 11 15 13 7 4 3 3 1 1 3 3 2 0 2 1 1 5 3 1 7 2 9 11 13 14 15 15 15 15 15 15 17 20 20 20 22 22 20 19 19 17 17 17 17 17 17 17 17 17 16 15 14 14 14 14 12 13 13 13 13 12 11 11 11 11 11 10 10 11 11 13 12 11 11 10 12 12 12 11 11 12 11 10 9 8 9 11 10 6 6 6 7 9 7 9
6 5 11 13 14 6 4 5 5 2 3 6 2 3 1 2 2 1 4 3 6 8 4 11 11 13 14 14 14 14 15 14 14 15 18 20 21 24 25 23 20 19 18 18 18 18 18 18 18 17 17 16 15 14 14 14 14 13 12 13 12 12 13 12 11 11 9 10 10 9 10 12 13 12 12 11 11 12 12 13 13 11 13 14 10 10 11 9 10 10 4 5 7 8 8 5 7
7 3 5 7 11 4 6 6 5 3 4 7 5 2 1 2 1 2 3 3 7 9 3 10 10 13 13 13 14 14 14 14 15 16 15 16 19 23 24 22 22 21 19 19 19 18 18 19 18 18 18 17 16 15 14 14 14 13 12 12 12 12 13 12 11 11 9 10 9 8 11 11 10 11 12 12 12 13 11 11 11 10 12 12 10 9 9 6 6 6 3 4 5 6 7 6 6
5 2 4 5 5 5 5 5 6 4 2 5 5 2 0 1 1 2 2 4 8 12 3 9 10 11 12 12 13 13 13 14 14 15 14 14 16 19 23 22 21 23 21 21 22 20 18 19 19 18 18 17 16 15 13 13 13 13 13 12 12 12 12 12 11 11 10 10 8 9 11 9 7 9 10 11 11 10 9 8 9 9 9 8 7 7 5 4 3 2 4 5 4 3 5 8 7
7 2 3 2 4 4 4 4 4 6 3 3 7 1 3 2 3 1 1 6 7 11 8 6 10 8 10 11 11 12 12 13 14 14 13 14 14 15 20 20 19 22 23 22 22 22 21 20 20 19 18 17 16 15 13 13 13 12 12 12 11 12 11 11 12 11 10 10 10 10 10 8 5 6 8 9 8 7 7 8 8 8 7 7 7 6 3 4 3 2 2 4 3 4 4 8 9
5 1 3 3 2 1 2 1 4 7 2 5 11 4 5 4 2 2 1 5 5 8 11 4 10 7 9 9 9 10 9 11 13 13 12 12 13 13 14 16 16 18 23 23 21 22 22 21 21 20 18 17 16 15 15 15 14 12 12 11 11 11 11 10 11 10 9 9 11 11 11 9 4 1 6 8 6 7 9 10 9 7 6 6 5 5 3 2 2 3 3 2 2 3 3 5 4
2 2 3 6 5 2 1 1 4 5 2 5 9 6 4 4 3 3 2 3 2 3 11 5 9 6 8 10 8 8 8 10 11 11 12 11 11 12 12 13 13 14 18 23 23 23 23 21 22 20 19 19 17 15 16 15 13 12 12 11 11 11 11 11 10 10 10 9 10 10 9 9 5 2 6 7 5 7 9 9 9 8 7 5 3 4 3 2 3 4 4 4 3 4 4 5 6
1 1 4 7 5 4 4 2 2 3 3 4 5 3 3 5 5 4 2 2 5 5 7 3 7 6 6 8 8 8 9 10 10 10 11 11 11 11 12 12 13 12 14 18 21 22 22 23 23 20 19 19 18 17 17 16 14 13 12 11 11 11 11 11 11 10 11 10 9 10 9 8 8 5 5 6 5 6 7 7 7 7 7 6 4 3 4 4 5 4 4 5 6 7 7 9 9
2 3 4 6 4 3 6 5 3 3 4 5 4 1 3 6 7 5 1 1 5 6 3 4 2 5 6 6 7 8 8 8 10 11 11 11 10 11 11 12 12 12 13 15 16 17 19 23 22 20 20 19 18 19 18 17 15 14 14 12 12 12 11 11 12 11 11 10 9 10 10 8 8 7 5 6 7 7 6 7 7 5 5 6 5 5 5 5 5 4 5 5 7 8 7 11 9
1 3 5 6 4 4 7 7 5 2 5 6 4 1 3 7 8 4 1 1 1 4 5 2 4 5 6 5 6 7 7 9 10 11 12 12 10 10 11 12 12 10 12 13 14 16 16 18 19 19 21 19 18 19 18 17 16 15 14 13 13 13 12 12 12 12 11 10 10 10 10 9 8 7 7 8 7 7 6 7 7 6 5 5 4 5 4 4 5 5 6 5 6 8 7 9 6
2 5 7 8 7 6 6 7 6 3 6 7 4 3 3 6 7 3 3 2 1 3 6 6 7 7 6 4 3 3 5 6 4 4 6 9 8 8 9 9 11 11 10 12 13 15 15 15 15 16 19 18 18 18 16 16 15 14 14 13 13 14 13 12 12 12 11 11 11 11 11 10 9 8 8 9 8 7 7 6 6 7 6 5 5 5 5 4 5 5 5 3 5 6 6 8 7
5 7 9 13 9 8 7 6 8 7 6 4 5 3 3 9 9 4 4 4 3 4 5 6 6 6 4 1 2 3 1 3 4 4 4 3 2 4 8 7 9 11 10 10 11 13 16 15 12 14 17 16 16 17 15 15 14 13 13 13 13 14 13 12 11 11 11 12 12 13 13 11 10 9 9 9 10 8 7 5 5 6 6 6 6 6 5 5 5 5 5 3 4 6 7 8 7
10 6 6 9 2 9 8 6 9 10 7 4 5 4 4 8 11 8 7 7 6 5 5 4 3 5 3 3 2 3 2 4 2 4 6 4 3 3 7 8 8 10 9 9 8 9 15 14 8 12 18 15 15 16 14 13 12 12 12 12 13 13 12 12 12 11 11 11 12 13 14 12 10 10 10 10 10 8 5 5 5 4 4 5 6 6 6 6 6 5 4 4 5 7 8 9 7
12 8 6 9 2 9 7 8 10 10 6 3 3 3 6 6 9 11 10 9 9 7 5 4 3 4 2 3 1 2 2 4 2 2 3 4 2 3 4 6 6 8 7 6 7 12 14 13 9 13 16 16 16 15 14 13 11 12 11 11 12 13 12 12 12 12 12 12 12 13 14 12 11 11 11 10 9 8 6 6 6 5 5 5 5 6 6 6 6 4 4 5 7 7 8 8 6
11 8 8 12 1 9 10 11 11 9 4 2 0 1 7 8 8 11 13 11 10 10 9 7 5 5 4 5 4 4 6 5 4 2 1 5 5 2 4 5 4 6 7 5 6 9 11 14 13 15 14 15 17 16 14 13 12 12 11 11 12 12 12 12 13 13 12 12 12 14 14 12 11 11 11 10 8 8 8 7 6 6 6 6 6 6 6 6 4 3 3 5 7 8 9 8 7
10 8 8 10 4 9 12 12 11 7 3 3 2 2 3 8 9 10 12 11 10 11 11 9 9 8 7 8 7 7 7 6 6 5 4 6 6 4 4 6 8 6 10 6 9 8 9 12 14 16 16 15 16 16 15 14 12 12 11 11 11 11 12 12 13 13 12 13 12 12 12 12 12 12 11 10 9 8 8 7 6 6 6 7 7 6 6 5 4 4 5 7 7 7 8 8 5
8 7 8 6 4 11 11 11 12 7 3 3 4 2 1 3 6 9 11 10 9 11 11 10 12 12 10 10 10 10 9 8 9 8 8 9 9 10 9 9 9 8 9 9 11 11 11 12 14 15 16 16 15 15 15 14 12 12 11 10 10 9 11 11 11 12 12 13 13 13 12 12 12 12 11 10 9 9 9 9 8 7 7 7 7 7 7 6 7 6 6 7 7 7 7 6 5
8 6 6 5 4 8 7 9 11 7 3 4 5 3 1 2 3 8 10 10 9 10 10 10 10 11 11 11 11 12 10 9 10 10 10 12 13 13 12 12 11 10 11 12 12 14 14 14 15 16 17 17 16 14 14 12 11 12 11 10 9 7 7 8 9 11 11 10 10 12 13 12 12 12 11 11 10 10 10 10 9 8 8 8 7 8 8 8 8 8 8 8 6 7 7 4 3
9 8 6 6 2 3 3 11 10 6 6 7 6 3 2 4 5 5 8 9 9 10 11 10 9 10 10 11 11 12 11 11 11 12 12 12 13 14 14 13 12 11 13 15 15 16 16 15 15 17 18 17 16 15 14 12 11 12 12 9 7 5 4 5 6 8 9 8 6 8 10 11 12 12 11 12 12 12 12 11 10 9 8 9 9 8 9 9 9 9 9 8 6 7 6 4 3
9 9 7 7 7 9 4 7 7 4 5 7 5 2 0 4 6 6 7 9 10 10 12 12 10 10 10 10 11 11 11 11 11 12 12 11 12 14 14 14 13 12 14 17 15 15 16 14 14 18 18 16 16 16 16 14 11 12 14 11 8 6 5 6 6 6 8 9 7 7 9 10 12 12 12 13 13 13 13 13 12 11 9 10 10 10 10 10 10 10 8 7 7 7 6 5 4
7 4 7 7 6 5 9 4 3 1 4 8 6 1 1 2 5 8 6 8 11 10 11 12 10 9 9 8 8 9 10 10 10 11 12 12 13 14 14 15 15 14 15 16 14 14 16 15 14 18 19 16 15 15 16 16 13 11 13 12 10 10 8 8 9 8 9 11 10 9 9 11 13 13 13 14 14 14 14 14 14 13 12 12 11 11 11 10 10 9 7 7 7 5 4 4 5
6 3 7 6 1 5 11 8 6 2 8 11 6 3 0 2 4 9 9 8 10 11 11 12 10 10 11 9 7 8 9 9 9 10 12 12 13 15 15 15 16 16 16 17 15 15 16 16 15 17 19 19 17 16 17 17 14 11 12 13 11 12 11 10 12 11 10 10 10 10 10 10 13 14 13 14 15 15 15 14 14 14 14 14 13 11 12 12 10 9 8 7 6 5 4 5 6
7 4 9 7 5 9 9 7 8 4 4 6 4 5 1 3 3 7 11 10 10 10 11 12 12 11 11 11 10 10 10 9 9 10 11 13 14 16 16 16 17 16 16 16 15 15 15 16 16 15 18 21 19 17 17 18 16 12 13 14 13 12 10 10 11 11 9 9 9 9 10 10 11 14 14 14 15 15 16 15 15 15 15 15 14 13 13 13 12 11 10 8 7 7 6 7 7
6 6 10 8 8 10 8 7 7 5 3 1 4 7 3 2 4 5 8 9 9 8 9 10 13 11 10 11 12 11 9 8 10 10 10 12 15 16 16 15 16 17 16 15 15 16 16 17 18 16 16 19 21 19 17 17 18 16 14 13 13 11 12 12 11 11 10 11 11 10 11 13 13 13 14 15 15 14 16 16 16 16 16 16 16 15 14 13 12 12 11 10 9 8 8 8 8
9 7 7 8 9 7 7 5 4 5 4 4 1 8 9 4 3 5 5 7 8 8 7 9 13 11 10 10 10 10 8 8 9 9 9 11 11 10 12 13 14 15 15 15 16 16 17 18 18 18 16 18 21 22 18 16 17 17 16 16 14 12 13 15 14 13 11 12 14 12 12 14 14 13 14 15 15 14 15 16 16 17 16 17 17 17 16 14 13 12 12 12 11 10 10 8 8
9 7 7 7 6 4 4 3 4 5 2 3 5 9 12 6 2 6 8 8 10 8 6 11 15 13 11 10 10 10 9 9 10 8 7 6 4 5 10 13 13 16 17 17 17 16 17 17 18 19 17 18 21 22 19 16 16 17 18 19 16 12 14 16 15 14 12 13 15 12 12 15 15 15 16 16 17 17 16 16 17 17 18 18 18 18 17 15 13 12 13 12 12 12 11 9 9
7 7 7 6 4 3 3 2 3 4 3 5 6 5 5 2 2 6 9 8 7 7 7 11 12 12 12 11 10 10 10 10 10 8 5 4 4 5 9 12 13 15 18 18 16 15 16 17 19 20 18 18 20 21 19 17 15 17 19 19 18 15 14 15 14 14 13 13 13 12 13 16 17 17 16 16 19 18 17 18 19 19 19 19 18 18 18 16 15 14 13 12 11 12 12 10 9
8 7 7 6 4 3 4 4 4 3 4 5 1 2 3 1 4 6 8 6 7 9 9 11 12 11 11 10 10 9 9 10 10 7 3 4 4 6 8 10 11 14 17 17 15 14 14 16 19 21 20 19 18 19 19 18 17 18 19 19 18 17 15 14 15 15 14 13 12 12 12 13 15 17 17 16 18 17 16 18 20 20 20 19 19 19 18 17 16 15 14 12 11 11 11 10 10
7 6 6 6 4 4 5 3 4 4 3 3 1 1 3 1 4 5 6 7 10 10 8 11 13 11 10 10 10 10 10 10 9 11 8 6 7 7 8 9 10 14 17 18 17 16 14 14 16 18 18 18 17 19 20 20 21 20 19 18 17 15 14 15 16 16 16 14 14 13 12 12 12 14 17 17 16 17 17 18 20 20 20 20 19 19 18 16 16 15 15 14 12 10 9 10 10
5 7 6 6 6 6 5 6 6 5 3 3 2 1 2 3 4 4 7 11 11 8 7 9 12 12 10 9 9 9 9 8 7 10 12 10 10 12 9 9 11 15 17 18 18 17 16 15 16 16 16 16 15 17 19 20 21 18 16 16 15 14 15 16 17 19 18 17 16 15 15 15 12 12 16 17 16 16 17 19 19 19 20 20 19 18 18 16 16 15 15 15 14 11 11 12 11
3 5 5 6 8 4 4 7 6 6 4 2 0 1 5 5 1 2 8 13 11 8 7 6 9 12 8 5 6 7 6 8 6 7 11 13 14 14 11 11 14 16 17 17 16 17 16 15 17 18 17 15 14 16 17 17 19 17 16 18 18 17 18 18 17 17 17 16 16 16 15 15 13 13 16 16 16 16 17 19 18 17 20 20 19 19 18 17 17 16 15 15 15 13 13 13 12
6 3 4 6 6 0 2 5 4 4 4 2 2 1 4 3 1 1 4 9 12 10 10 8 7 10 7 3 2 3 4 8 8 8 11 12 14 16 16 16 17 16 16 15 15 15 15 14 16 17 17 17 19 22 23 20 19 19 20 22 22 20 19 18 15 13 13 14 15 15 15 13 12 13 14 15 15 15 16 18 18 18 20 20 19 19 19 18 17 16 16 16 15 14 14 14 13
13 6 6 6 5 1 1 3 3 5 4 2 4 2 1 1 2 4 7 5 11 11 11 11 9 8 5 2 2 0 3 6 7 7 9 10 13 18 22 20 17 15 13 12 13 13 13 14 14 15 16 17 18 21 22 20 19 20 21 21 20 19 17 16 14 13 13 13 14 15 13 12 12 12 14 16 17 16 16 18 18 19 20 20 19 19 19 19 18 17 16 15 15 15 15 15 13
12 10 6 5 4 4 2 3 4 5 3 3 3 2 2 3 2 3 3 7 12 11 9 8 10 12 7 1 2 3 5 5 6 6 6 7 10 13 17 18 16 15 13 13 13 12 12 12 13 13 13 13 12 12 13 15 16 17 16 16 15 15 14 13 14 14 13 13 14 14 12 12 14 13 12 14 16 16 16 18 19 18 19 19 19 19 19 19 18 18 17 16 15 15 16 16 14
8 8 7 5 4 4 4 3 3 3 3 4 2 1 1 1 3 7 11 11 11 12 9 5 7 12 11 9 8 7 7 6 7 6 6 6 8 10 12 13 14 14 13 13 14 13 12 13 14 14 13 11 9 10 11 12 12 12 11 11 9 9 10 11 12 12 11 12 13 13 11 12 14 14 13 13 14 16 16 17 18 18 19 19 20 21 19 18 19 19 18 17 16 16 17 17 16
9 7 8 6 5 5 5 5 4 3 5 4 3 1 3 3 5 9 11 10 11 12 11 7 6 8 9 10 9 7 7 7 7 8 7 7 7 8 10 11 11 11 10 9 10 10 11 11 11 11 12 12 11 12 12 11 10 10 9 8 7 7 7 8 9 8 9 10 12 12 9 9 11 13 13 12 13 15 16 16 17 18 19 19 21 22 20 18 18 19 18 17 16 17 17 16 15
Wind_Direction
189 203 211 217 240 28 93 161 247 168 208 292 254 200 139 183 128 120 135 122 109 98 98 119 98 88 103 98 103 89 66 74 95 129 97 119 131 131 131 131 132 128 128 131 132 129 130 132 127 125 123 122 122 123 123 121 120 118 117 115 113 113 112 109 107 106 105 106 108 110 108 109 113 116 118 120 122 124 126 127 128 131 132 134 137 140 144 147 150 154 154 155 157 157 156 154 151
213 199 217 168 56 338 19 9 318 11 327 286 255 154 125 134 112 100 107 101 94 93 89 90 90 101 107 107 110 90 67 57 78 89 100 124 128 130 133 132 132 129 129 132 132 131 131 133 130 126 124 121 122 123 123 121 119 118 118 117 117 114 113 110 107 107 107 106 105 107 108 108 111 114 116 118 119 121 123 125 127 129 131 132 135 138 143 146 151 156 157 159 158 161 161 159 157
225 214 211 173 65 45 19 9 333 345 290 260 222 92 104 106 100 98 99 100 104 99 90 93 93 99 100 93 86 81 83 73 92 100 115 131 129 136 138 133 131 130 130 132 133 133 133 135 132 127 123 122 124 124 123 122 119 120 120 116 114 112 112 110 108 108 107 106 106 107 109 110 111 112 112 113 115 118 120 123 125 128 129 131 134 137 141 144 149 154 158 161 160 160 159 156 153
233 258 208 178 84 96 64 292 223 266 274 267 137 82 84 94 102 101 98 102 109 105 95 97 88 76 82 90 89 81 97 99 108 114 127 135 133 137 138 133 131 130 131 133 136 135 138 139 134 130 126 125 128 126 123 123 123 125 124 120 117 114 112 111 110 107 106 108 110 111 112 114 114 114 115 115 116 118 119 120 122 124 126 129 132 134 137 142 146 151 155 159 160 159 156 152 145
245 263 180 90 318 166 126 256 265 243 289 299 188 84 89 95 102 101 100 103 99 102 105 104 93 83 83 97 106 91 108 114 119 119 123 129 132 137 137 135 131 130 131 132 135 135 142 141 135 134 131 128 129 128 125 125 125 127 130 125 122 119 115 114 113 111 112 112 112 113 114 116 117 118 119 120 121 121 122 122 122 122 124 127 129 132 136 141 143 146 151 155 157 155 151 147 142
236 220 66 37 344 267 238 257 306 286 4 313 226 80 81 81 91 102 100 102 90 95 108 109 101 99 83 73 64 82 123 121 126 125 123 131 135 137 138 135 131 132 131 130 132 134 141 142 137 136 133 132 130 131 129 128 127 129 133 128 126 126 121 117 113 113 114 114 115 116 117 118 119 121 121 122 123 123 125 124 125 126 127 129 130 134 138 141 144 147 150 152 152 150 147 143 141
206 129 31 21 343 263 250 294 317 320 352 288 247 86 66 56 60 84 85 97 93 92 104 109 104 105 98 86 66 62 129 117 126 129 127 134 136 137 137 134 131 131 128 126 128 131 139 141 138 136 134 135 132 133 132 131 132 134 132 128 130 128 122 119 115 116 117 118 120 120 120 120 121 124 124 124 124 125 127 127 128 129 130 133 136 139 143 146 148 151 151 152 150 147 146 143 145
204 163 224 236 331 252 262 305 318 347 265 260 315 68 56 47 40 55 63 73 86 91 105 115 104 97 99 101 78 51 144 121 122 127 128 134 136 136 136 132 129 127 123 123 126 131 137 138 137 136 135 137 135 135 135 137 139 137 132 130 132 128 126 124 122 124 123 124 124 125 124 123 125 128 127 125 127 129 129 131 131 131 132 133 136 138 142 146 148 152 152 151 149 148 148 148 153
229 213 198 221 284 270 272 313 7 338 260 262 331 50 38 42 30 25 61 82 91 96 95 102 102 103 102 99 98 120 133 124 124 129 130 133 134 136 136 134 129 125 122 123 127 131 134 136 138 137 137 139 137 138 139 140 141 138 134 133 130 128 129 128 130 132 128 128 130 131 130 130 131 133 134 129 129 131 131 132 132 132 131 132 134 136 138 141 143 145 145 146 146 150 158 162 166
209 226 194 343 335 308 273 55 84 201 279 291 347 21 12 33 35 22 47 86 92 94 88 86 95 111 113 107 112 129 133 132 131 133 133 132 133 136 136 134 130 126 124 125 127 129 133 137 137 137 137 139 138 140 140 139 141 139 135 133 130 130 133 133 137 135 127 128 132 135 135 136 134 136 139 134 130 130 132 133 135 135 134 135 136 138 140 141 141 141 139 139 140 147 164 180 187
231 202 149 66 21 317 334 36 302 174 275 294 350 2 354 6 44 37 359 72 102 99 101 100 101 109 112 107 113 137 138 137 136 135 133 133 134 134 133 133 131 128 127 127 126 128 132 136 136 137 138 138 139 142 142 139 140 140 136 134 134 135 137 138 139 134 127 125 129 133 138 139 137 139 141 139 133 129 131 133 136 137 137 139 141 144 147 146 146 146 143 140 142 149 161 180 193
284 291 204 150 66 295 16 91 285 271 258 272 3 352 339 344 33 36 351 28 98 99 103 110 112 109 109 107 121 137 137 141 138 135 135 135 135 134 132 133 133 131 130 129 127 130 133 135 139 140 140 139 141 145 144 139 139 141 137 138 139 139 141 140 137 133 129 126 126 130 138 139 141 144 143 144 140 134 135 136 137 140 141 143 147 151 153 153 153 152 149 150 153 160 167 183 193
310 317 306 356 102 250 205 171 243 255 244 167 8 338 341 347 11 10 12 31 46 79 83 91 108 110 110 115 130 134 137 149 143 138 140 138 136 133 131 132 132 130 129 131 131 133 136 137 140 142 142 141 144 145 143 141 140 140 140 140 141 141 143 141 138 136 136 133 131 132 139 139 143 145 141 145 143 138 140 141 142 144 149 152 157 161 162 160 159 161 155 159 164 172 187 196 204
325 308 314 3 139 228 194 152 232 238 231 99 23 342 355 341 1 359 15 37 48 76 81 95 112 113 114 123 135 134 139 150 144 140 142 139 136 130 130 133 132 129 131 133 132 134 139 140 139 142 143 144 148 146 144 144 141 143 145 142 141 143 144 144 143 142 143 143 142 142 145 140 140 141 139 143 141 139 144 148 151 154 159 163 168 171 173 172 170 175 170 177 194 206 216 213 232
294 287 309 342 56 254 355 351 284 262 231 113 89 12 351 297 14 357 342 309 64 72 82 113 127 128 136 142 147 142 140 145 138 137 142 139 135 129 131 134 132 131 133 135 133 137 142 142 143 143 144 148 153 151 149 147 143 146 146 142 143 147 148 150 149 150 154 153 153 150 149 143 139 140 138 140 138 140 151 156 162 166 171 173 180 186 186 192 191 197 203 213 230 238 245 246 249
287 298 309 328 360 334 350 344 297 283 181 113 74 39 335 10 50 343 280 261 80 76 45 92 113 129 143 145 145 143 138 139 132 134 139 135 133 129 131 133 132 131 134 138 138 145 148 146 149 150 151 154 155 152 150 150 148 146 144 143 146 151 152 152 154 160 163 159 160 157 155 154 151 154 152 151 148 157 166 166 178 182 186 190 194 199 201 206 207 214 225 232 244 248 254 259 258
313 309 302 331 4 350 346 343 319 325 107 112 70 74 353 346 32 279 276 282 300 110 57 49 67 108 127 132 137 141 138 139 136 135 135 131 131 130 132 135 134 133 139 146 145 152 153 151 153 154 155 154 155 151 147 152 153 148 146 145 145 151 151 153 161 164 161 157 159 159 163 163 162 168 168 175 181 188 186 178 189 192 198 201 200 206 208 211 212 220 233 240 244 246 244 243 245
324 325 351 358 360 338 338 333 337 330 176 129 99 93 54 339 348 331 329 312 320 112 86 67 76 97 114 126 133 141 141 144 146 142 138 134 134 135 138 142 142 141 146 153 155 158 157 157 156 155 156 156 157 153 149 154 155 152 152 151 148 152 155 161 166 162 159 159 159 162 169 168 167 168 165 180 192 196 199 196 197 199 204 203 203 209 208 209 214 224 233 236 232 224 220 222 228
287 356 33 7 225 205 341 329 325 308 262 94 100 73 43 6 1 351 355 329 328 67 99 92 97 104 115 126 134 142 144 147 150 147 144 139 140 144 143 143 147 148 151 158 162 163 161 161 160 157 160 163 161 155 155 158 157 155 155 158 157 159 163 167 168 169 170 166 166 170 172 172 172 167 169 184 189 188 201 213 210 207 205 203 206 208 210 213 215 221 214 215 216 213 217 218 224
293 48 42 326 125 141 27 352 334 338 64 90 100 66 45 348 358 357 348 331 328 357 111 116 117 119 125 132 138 145 149 151 148 146 147 140 141 150 147 145 152 156 157 159 162 166 164 162 162 161 162 164 162 158 160 161 159 157 158 161 162 164 166 170 175 176 177 173 174 175 173 174 171 170 180 187 183 187 205 223 215 212 211 207 206 206 210 208 202 204 197 203 209 215 229 234 243
345 52 16 339 9 59 24 34 46 7 100 126 72 69 63 312 357 15 299 257 301 306 133 124 129 130 133 139 144 151 154 152 150 149 149 142 141 149 149 150 157 162 160 158 162 166 165 164 163 162 162 162 161 161 163 163 163 160 162 164 165 170 173 177 178 175 178 179 179 177 175 176 174 178 185 185 183 193 207 216 202 202 207 203 200 204 201 196 201 201 200 215 221 227 236 243 255
18 36 23 340 343 34 12 18 123 135 139 103 76 88 269 313 327 248 261 188 141 279 166 123 134 137 140 145 147 154 155 155 156 151 148 149 148 144 148 158 159 160 163 162 165 168 167 166 164 164 164 165 165 165 164 163 163 164 167 168 171 178 181 179 176 179 181 179 179 177 178 180 187 193 188 186 189 196 207 212 199 197 204 202 202 205 201 212 222 214 211 228 243 252 245 248 256
33 29 19 340 337 27 4 10 89 130 135 94 95 193 268 338 283 260 257 199 319 289 163 128 135 139 143 147 152 156 156 159 160 153 149 154 152 144 151 162 160 159 163 165 168 169 170 168 165 167 167 169 170 168 166 165 166 168 171 172 176 180 183 180 181 188 184 180 180 175 183 189 195 197 187 189 194 197 206 209 205 205 210 210 212 213 211 223 224 216 211 211 227 256 256 259 258
52 39 28 333 315 16 15 17 65 85 83 92 118 245 154 203 222 165 251 233 287 292 131 133 139 143 148 151 159 157 156 160 161 161 155 154 153 149 153 158 158 160 161 164 168 169 171 170 167 168 168 169 169 168 168 169 171 172 174 176 180 180 180 184 184 189 190 185 175 173 198 202 197 192 183 191 198 200 207 207 204 205 211 211 217 225 221 222 215 206 189 184 215 255 260 254 255
61 64 66 284 286 23 36 23 51 75 85 110 137 257 154 230 277 102 245 255 289 302 123 140 144 149 153 158 163 157 160 163 161 163 158 156 153 148 150 154 156 158 160 162 165 169 169 169 169 168 169 169 167 169 169 172 175 174 175 177 182 183 181 183 181 184 188 184 176 187 212 214 201 188 184 191 199 204 204 202 202 206 213 205 207 224 220 211 194 188 163 175 224 267 287 285 269
89 145 175 237 302 20 46 44 40 39 53 124 127 292 316 248 303 111 277 314 319 318 313 150 150 158 156 161 164 159 166 164 163 163 158 160 156 148 147 154 158 156 160 161 161 168 168 166 169 169 169 169 166 168 170 173 175 175 177 179 182 185 184 181 182 185 187 189 191 198 215 227 208 193 194 193 195 200 196 196 208 216 215 201 205 221 225 229 211 183 165 171 197 235 306 292 264
112 165 232 299 349 6 38 54 63 61 17 83 96 338 291 295 285 193 345 341 337 327 313 163 154 164 159 164 163 160 171 165 162 163 161 163 161 157 150 156 164 156 157 159 160 166 168 167 167 168 170 168 167 170 172 172 174 177 177 181 183 185 185 181 186 188 186 194 196 197 215 224 213 201 192 185 184 187 191 204 219 219 209 203 215 220 238 268 280 334 191 185 198 207 245 244 221
105 190 275 312 309 342 33 41 97 94 44 81 110 159 264 274 265 186 113 353 357 333 307 202 155 168 164 166 163 161 172 164 163 166 168 166 161 165 157 159 165 154 153 155 158 163 166 167 164 167 169 167 170 173 175 174 176 180 178 183 186 186 186 185 192 191 186 193 195 198 208 207 222 223 172 177 189 195 201 207 214 217 214 217 225 223 226 286 305 314 299 282 263 233 243 248 244
26 1 306 277 255 238 228 45 92 112 97 99 126 158 216 203 188 183 147 25 50 290 290 227 156 181 172 163 166 166 172 165 169 172 168 166 165 169 167 164 163 157 152 150 157 164 165 165 163 166 167 168 172 173 177 176 176 181 181 186 190 189 188 188 195 198 194 192 192 195 198 201 216 210 182 194 201 206 209 204 205 208 213 222 219 228 240 281 287 291 306 307 303 306 315 333 344
218 314 310 285 263 216 191 153 122 134 106 119 157 168 162 167 183 200 160 125 166 197 273 247 160 189 182 166 167 170 176 169 170 174 169 168 170 172 171 167 164 162 154 151 160 165 162 160 162 165 166 170 174 174 178 178 178 182 182 187 191 189 190 193 196 199 196 191 191 191 191 201 205 195 199 208 204 215 217 207 209 204 207 218 218 239 264 277 286 300 313 317 327 334 331 340 359
217 260 264 266 270 207 174 157 171 159 123 162 202 207 151 168 190 197 153 174 178 176 243 291 231 203 192 178 173 171 175 174 174 174 169 171 173 176 174 166 168 167 158 158 163 161 158 158 161 164 167 172 173 174 177 177 180 183 184 188 192 192 192 197 199 197 195 194 198 195 194 200 201 196 197 202 210 229 228 205 210 212 207 211 223 249 258 274 295 302 301 319 332 333 336 338 352
136 262 254 253 240 174 165 165 189 182 133 173 223 314 130 169 188 188 186 254 185 180 185 226 275 243 215 198 185 172 172 180 181 173 168 174 176 174 172 167 169 162 156 164 163 160 161 160 163 165 166 170 171 172 176 178 181 182 185 189 189 192 195 201 203 201 197 197 200 200 200 200 199 200 198 202 208 232 237 206 203 211 212 201 210 245 249 266 287 287 294 323 331 328 333 334 333
179 238 261 261 229 171 162 171 176 159 142 169 216 304 52 142 171 194 191 172 197 206 183 185 209 218 215 209 195 166 178 179 159 162 171 173 170 164 171 169 160 152 162 173 162 161 162 161 169 167 164 170 170 169 172 175 178 180 184 189 188 190 198 203 203 203 201 199 202 204 204 200 201 202 204 210 203 220 239 216 205 207 216 219 217 244 249 255 270 277 293 306 319 327 325 326 325
245 226 234 245 227 158 150 169 165 167 172 170 188 238 40 114 150 194 197 172 201 217 205 204 198 198 193 142 34 35 109 99 58 354 360 48 85 141 170 171 152 153 167 175 169 165 156 158 177 170 163 170 168 164 167 172 174 178 184 190 189 190 199 204 200 204 205 201 204 210 207 197 201 204 206 216 207 214 234 222 218 208 209 218 220 240 245 252 266 275 299 305 310 321 314 312 312
272 260 239 260 202 134 147 150 156 172 187 194 194 198 63 106 147 179 193 180 195 207 214 227 214 205 164 90 31 5 62 95 72 340 20 52 28 59 170 169 148 155 167 172 163 137 137 154 175 159 161 168 163 162 167 172 173 176 186 190 187 189 199 204 202 207 209 205 204 208 206 194 197 206 206 215 212 212 227 222 225 215 205 213 220 235 236 247 260 265 295 308 307 311 305 303 305
267 291 286 293 90 125 130 127 151 168 170 185 213 160 109 123 151 171 186 187 195 195 203 229 236 224 176 133 200 279 208 140 147 320 46 129 114 40 160 149 139 158 168 161 102 86 121 160 162 141 158 166 161 164 170 175 177 178 189 192 186 189 199 203 203 207 211 213 210 204 201 193 196 206 207 213 213 208 214 223 228 222 218 221 224 235 236 242 251 250 272 294 301 308 302 299 309
263 289 285 294 8 124 127 133 150 158 150 111 338 126 122 133 148 167 182 189 198 194 194 206 206 221 206 179 200 234 216 175 169 228 154 149 140 122 136 133 188 160 116 125 112 100 141 173 168 148 154 164 166 171 175 181 182 182 193 196 190 192 199 204 205 209 211 213 213 202 195 191 198 206 207 211 213 210 215 224 230 223 222 228 228 238 246 249 253 244 261 291 297 297 296 301 310
276 283 272 299 20 111 127 135 139 148 185 115 97 296 109 127 144 161 175 182 202 202 198 201 193 205 204 182 197 222 211 177 177 200 192 174 169 197 175 173 207 139 102 157 179 166 172 181 181 167 160 165 172 179 182 185 185 185 194 199 198 198 201 205 208 212 214 211 209 202 193 188 196 205 206 209 213 215 220 226 231 225 223 233 235 240 250 254 258 261 271 286 292 287 289 303 315
278 281 276 294 92 117 120 127 135 150 214 110 122 236 32 99 142 153 166 176 199 202 200 205 196 198 197 184 189 205 204 183 186 194 192 194 193 203 199 195 198 139 132 198 198 185 187 192 194 182 173 173 175 183 188 189 190 190 195 202 206 206 205 205 208 214 219 217 206 201 206 199 196 204 206 208 212 216 222 225 229 230 227 232 237 240 246 254 259 265 269 267 277 286 285 310 333
259 258 279 280 137 118 121 140 145 153 177 115 130 181 298 302 187 162 175 181 186 191 201 213 205 201 200 195 192 194 195 189 192 196 196 199 200 202 199 196 190 157 163 198 199 193 192 198 203 192 185 184 179 184 192 191 192 191 190 200 203 203 203 200 210 217 224 231 208 194 207 208 200 204 207 209 214 218 222 224 228 231 229 228 234 240 244 253 257 256 260 258 265 278 276 303 332
250 239 250 262 294 14 124 145 146 155 146 127 137 166 197 229 227 196 185 184 182 184 198 207 207 209 204 200 203 198 195 198 199 200 202 200 198 202 196 192 190 173 182 197 195 197 195 195 206 198 188 190 191 189 189 188 190 188 184 191 194 180 182 192 207 219 224 239 229 202 207 209 206 209 210 212 216 219 221 222 227 230 231 230 229 237 243 248 253 252 253 254 261 272 281 311 305
266 262 286 310 351 344 336 132 141 178 158 146 165 231 149 171 217 235 193 181 190 192 196 197 196 202 203 200 202 202 203 207 206 200 203 201 198 203 196 193 194 182 194 204 198 202 203 195 201 200 191 190 197 196 192 194 193 188 186 190 195 184 185 199 201 219 231 235 243 233 220 211 211 214 215 215 218 221 222 221 225 226 232 235 227 231 244 248 252 256 251 247 259 262 270 306 306
261 273 313 336 33 332 285 238 192 225 129 154 181 278 355 157 213 234 207 186 194 194 200 201 191 187 200 208 200 202 206 205 208 203 200 201 200 204 198 194 197 189 195 206 202 203 205 197 195 199 195 187 192 197 197 199 195 188 187 189 198 197 198 206 205 217 233 236 242 240 233 224 216 217 220 219 218 221 223 222 223 222 227 238 233 227 241 249 248 251 249 250 263 253 242 290 303
262 309 302 295 54 272 276 287 290 336 111 141 154 105 331 270 225 217 209 199 200 199 201 200 192 189 198 208 206 212 215 207 208 203 200 204 203 206 204 196 196 196 197 197 193 195 198 198 193 193 198 196 194 197 200 202 196 191 190 190 200 206 210 217 216 221 229 235 241 240 239 232 221 221 224 222 220 220 223 222 223 222 222 233 238 232 236 246 246 248 251 249 250 249 260 283 283
256 310 317 321 330 299 297 305 288 288 104 133 134 108 194 261 191 198 202 202 211 210 206 196 192 198 199 203 206 209 217 218 218 210 203 204 202 204 205 200 196 198 206 201 188 190 194 195 192 188 196 205 204 199 201 202 199 200 199 196 202 204 207 211 208 214 221 228 239 241 241 234 227 227 222 218 220 220 221 221 223 224 224 227 233 235 236 240 243 247 250 243 241 254 267 269 266
259 328 333 314 285 279 273 269 280 308 330 265 156 143 186 242 153 179 203 206 218 218 214 195 185 195 199 202 207 200 197 208 220 221 211 207 208 209 206 203 200 196 207 209 189 186 187 187 192 190 191 203 204 198 198 202 203 204 202 202 207 206 206 203 199 208 218 227 234 236 239 238 237 234 221 218 224 223 220 221 223 225 226 227 228 232 237 238 240 244 246 242 240 252 262 263 266
288 316 309 276 259 260 265 278 314 316 305 324 285 176 187 212 163 188 214 209 212 216 212 176 165 183 199 201 206 199 189 197 210 213 212 210 207 207 200 199 203 199 204 210 196 185 181 180 188 191 192 198 199 197 196 201 208 211 207 204 204 210 217 213 213 219 221 229 233 230 236 237 233 231 223 223 230 229 222 221 223 226 227 228 228 229 235 238 238 239 241 240 238 244 253 258 267
285 288 284 281 279 276 291 307 291 276 278 322 285 213 200 222 207 192 207 208 205 208 194 159 157 173 187 193 198 197 196 198 202 200 198 202 182 182 196 196 201 203 205 209 203 189 178 179 185 187 192 198 197 196 194 195 205 212 213 209 205 210 219 218 220 223 220 229 232 226 231 233 230 232 229 228 233 232 227 224 224 227 228 228 229 229 232 236 238 240 243 240 236 237 239 243 258
245 256 264 270 281 282 294 300 263 255 251 250 255 239 219 223 103 170 192 198 184 165 151 151 158 169 176 185 191 194 196 192 194 191 185 195 172 179 200 198 196 202 207 207 204 195 180 181 187 184 186 195 199 197 194 195 201 208 213 214 214 217 218 215 217 219 219 227 231 226 231 232 231 234 230 229 235 232 228 227 225 227 230 229 228 228 230 232 235 241 247 247 243 235 229 232 247
209 234 241 244 264 278 268 273 275 265 270 268 257 352 311 101 107 147 169 157 123 118 127 141 151 162 169 181 192 193 189 188 184 167 178 248 214 181 189 192 195 202 206 205 205 201 181 178 192 193 191 195 199 197 197 202 209 213 216 215 218 223 222 222 223 221 219 224 229 226 231 234 231 233 230 227 234 232 227 228 226 228 232 231 229 229 229 230 232 239 246 253 253 241 230 231 241
197 223 247 257 250 250 263 275 292 293 293 292 178 157 317 47 120 141 137 105 97 99 108 127 138 152 168 178 191 196 187 191 181 149 161 235 248 220 188 178 201 207 204 205 204 196 177 178 196 206 208 201 191 190 193 200 207 214 219 215 216 222 224 227 228 225 222 224 230 229 232 236 232 233 230 226 233 232 225 226 227 228 230 231 232 229 228 230 231 234 240 247 253 251 244 240 241
198 201 223 261 254 246 270 264 270 285 266 262 243 111 59 102 136 136 105 93 94 92 98 127 138 148 171 180 186 201 191 181 172 142 147 178 218 235 216 189 204 207 203 204 201 191 180 181 188 199 212 207 193 192 193 197 202 207 217 219 218 219 218 220 223 226 226 228 233 233 236 239 234 233 233 231 237 234 226 227 228 227 227 228 231 228 225 228 229 230 235 241 246 250 252 251 248
265 220 214 246 247 244 290 276 291 320 303 286 308 89 92 101 85 54 96 107 116 115 111 125 134 139 160 187 187 208 189 151 148 133 130 152 186 211 215 212 211 202 202 201 192 190 186 179 177 181 189 194 196 199 199 205 204 200 208 215 216 216 213 212 217 224 227 229 230 228 232 235 230 231 233 234 238 234 226 225 225 225 225 223 226 227 223 224 226 226 230 236 239 243 251 255 256
256 264 2 314 267 252 318 288 321 309 272 276 293 227 121 131 262 269 169 139 131 135 132 121 114 128 145 182 186 213 180 139 134 132 130 147 173 177 180 208 219 203 196 193 185 189 188 180 181 181 179 184 194 195 194 201 202 196 203 210 210 210 210 211 214 219 223 227 228 224 227 229 223 225 231 233 234 232 224 221 222 226 225 222 222 223 222 223 224 224 228 233 235 239 246 252 256
245 275 353 317 282 340 227 240 285 276 254 297 310 337 92 189 165 193 222 157 115 123 137 136 131 126 114 20 11 52 150 131 123 129 138 152 168 166 168 186 199 188 183 186 183 186 186 181 179 178 180 188 196 193 188 190 193 193 202 208 207 206 209 213 215 214 217 221 224 224 223 222 220 227 234 233 229 228 224 220 219 222 222 220 220 220 221 221 222 223 226 231 233 234 240 247 252
245 276 292 265 272 299 256 214 254 279 299 302 295 11 360 321 51 96 74 90 111 124 131 137 129 122 124 180 210 179 162 144 142 146 146 154 161 162 164 168 167 167 177 183 183 187 189 183 177 177 186 194 197 192 186 189 192 193 200 206 208 207 210 214 210 209 212 215 223 227 221 219 225 231 237 235 227 227 230 223 216 217 217 218 218 218 219 219 220 222 225 229 231 231 231 237 243
212 232 239 230 237 258 268 256 242 263 274 257 262 49 118 309 25 72 81 87 104 114 113 115 120 130 153 177 180 176 170 160 156 154 152 152 150 150 154 154 153 161 173 179 181 184 180 177 180 181 183 187 190 191 192 195 194 194 199 205 209 210 218 219 213 213 216 217 230 234 221 219 230 232 235 238 229 226 230 223 215 216 216 217 217 217 216 216 218 221 224 228 232 234 231 228 231
220 213 222 223 228 244 261 247 207 233 278 279 285 259 151 102 55 80 94 94 102 117 128 139 151 154 159 166 168 168 170 170 165 158 153 145 142 142 140 140 147 154 165 176 173 161 160 172 182 178 174 177 181 185 190 193 194 198 202 209 213 217 229 224 214 221 226 226 237 240 226 217 226 229 233 239 235 229 227 224 222 220 217 219 219 216 214 215 217 219 222 228 231 235 236 228 225
Height
764 765 765 767 767 768 771 774 792 790 791 807 792 782 779 763 755 758 760 753 753 748 742 745 743 743 752 762 767 765 767 770 774 783 791 783 777 781 781 783 786 787 790 791 793 794 795 797 798 799 800 800 801 802 803 803 803 802 803 804 805 806 806 808 808 809 810 811 812 812 813 814 815 816 818 819 819 820 821 822 823 824 825 826 826 827 828 829 829 830 830 831 832 832 833 833 834
764 766 766 768 766 770 775 775 796 797 800 813 790 774 768 755 757 759 757 755 753 746 740 742 743 744 748 753 756 762 768 764 762 769 774 773 777 781 782 784 786 787 789 791 793 795 796 797 799 800 800 801 802 803 804 805 805 805 805 806 807 807 808 809 810 811 811 812 813 814 815 815 816 817 818 820 820 821 822 823 824 825 825 826 827 828 829 829 830 830 831 831 832 833 833 834 834
765 767 766 769 768 772 778 782 800 806 809 813 790 768 757 758 761 756 749 747 745 742 743 744 746 746 749 758 760 768 774 765 761 765 770 773 777 780 783 785 786 788 789 792 794 795 796 797 799 800 801 802 803 804 805 806 807 807 807 807 808 808 809 811 812 812 813 813 814 815 816 817 818 818 820 820 821 822 823 824 824 825 826 827 827 828 829 830 830 831 831 832 833 834 834 835 836
765 767 768 769 773 777 786 795 799 804 809 805 792 771 757 761 756 750 744 739 737 740 747 748 753 749 753 769 765 768 774 767 764 765 770 773 775 779 782 784 787 789 790 792 794 795 795 797 799 801 802 803 804 805 806 807 808 808 808 809 809 810 810 811 813 814 814 815 815 816 817 819 819 820 821 822 823 823 824 825 825 826 827 827 828 829 830 830 831 831 832 833 834 835 835 836 836
767 769 770 771 779 782 789 799 793 798 805 798 792 773 757 755 750 748 742 737 735 740 749 751 759 753 752 764 762 770 774 767 764 764 769 773 776 779 782 784 786 788 790 792 793 794 795 797 799 801 803 804 805 806 807 808 809 809 810 810 811 811 811 812 814 814 815 816 816 817 818 820 820 821 822 823 824 824 825 826 826 827 827 828 829 829 830 831 832 832 833 834 835 835 836 837 837
767 770 772 772 778 778 787 799 795 797 795 788 787 772 756 751 747 745 741 738 734 738 745 749 758 760 762 762 759 767 768 766 766 765 769 773 777 779 782 784 785 788 790 792 793 794 795 798 800 801 803 804 805 806 808 809 810 811 811 811 812 813 811 812 813 815 816 817 817 818 819 820 821 822 823 824 824 825 826 827 827 828 828 829 829 830 831 832 832 833 834 835 836 836 837 838 838
766 776 779 778 780 779 793 801 796 796 787 782 780 768 757 750 746 744 745 744 741 739 743 748 750 761 772 767 765 767 764 766 765 766 771 774 778 779 782 784 785 788 789 792 793 794 796 798 800 802 804 805 806 807 808 809 810 812 812 812 814 813 812 812 813 815 817 818 818 819 819 820 822 822 823 824 825 826 826 827 828 828 829 829 830 831 831 832 833 834 835 835 836 837 838 838 839
764 775 778 783 790 785 792 797 794 794 786 780 771 761 755 750 746 747 749 749 749 745 745 748 748 765 775 767 775 772 764 768 766 769 772 774 778 780 782 784 785 788 790 792 793 795 797 799 801 803 804 806 806 807 808 809 811 812 813 814 815 814 813 813 814 815 817 818 819 820 820 821 822 823 824 825 826 826 827 827 828 829 829 830 830 831 832 833 833 834 835 836 837 838 838 838 839
763 769 774 783 794 790 789 795 795 791 784 780 769 757 752 748 747 749 751 750 749 747 747 747 749 769 776 772 781 773 766 770 769 771 773 776 778 780 783 784 787 788 790 792 794 796 798 800 802 804 805 806 807 808 809 810 811 812 814 814 814 814 814 814 815 816 817 818 820 820 821 822 823 824 824 825 826 827 827 828 828 829 830 830 831 832 833 833 834 835 836 837 837 838 838 838 838
765 766 773 783 795 796 790 793 795 790 783 778 770 759 753 749 749 751 752 752 747 747 748 745 753 767 773 779 782 773 770 771 770 773 774 777 778 781 783 785 787 788 790 792 795 797 799 801 802 804 806 807 808 808 810 811 812 813 814 814 815 815 815 816 816 816 817 819 820 821 822 823 824 824 825 826 827 827 828 828 829 830 830 831 832 832 833 834 835 835 836 837 837 838 838 838 838
766 764 770 787 803 804 794 793 792 788 780 773 768 759 754 749 751 754 753 752 745 748 748 749 763 768 770 779 780 773 771 771 772 774 775 777 779 782 783 785 788 789 791 793 795 797 799 801 803 805 806 807 808 809 810 811 812 813 814 815 815 816 816 817 817 818 818 820 820 822 823 824 825 825 826 826 827 828 828 829 829 830 831 831 832 833 833 834 835 836 837 837 837 838 838 838 838
765 765 769 791 807 803 794 795 792 787 778 773 772 761 755 751 754 758 756 754 746 749 748 749 762 764 774 782 777 773 772 773 772 774 777 778 779 782 783 786 788 790 792 793 796 798 800 802 803 805 806 808 808 809 810 812 813 813 815 816 816 817 818 818 819 819 819 820 821 822 823 824 825 826 827 827 828 829 829 830 830 831 831 832 833 833 834 835 836 836 837 837 838 838 838 838 838
762 764 767 789 802 797 792 792 789 789 781 773 772 761 756 758 760 758 756 756 750 754 750 744 752 759 776 781 773 774 775 774 773 775 778 778 780 783 785 786 788 790 792 794 796 798 801 802 803 805 806 808 809 810 811 812 814 814 816 816 817 818 819 820 820 821 821 821 822 823 824 825 825 826 827 828 829 829 830 830 831 831 832 833 833 834 835 835 836 837 837 838 838 838 838 839 839
756 758 764 785 798 794 788 789 787 788 783 770 767 761 759 762 761 756 756 760 755 752 745 738 746 761 775 778 776 774 773 774 773 776 778 780 782 784 786 787 789 790 792 794 796 798 800 802 804 805 807 808 810 811 812 813 814 815 816 817 818 819 820 821 821 822 822 823 823 824 825 825 826 826 827 828 829 830 830 831 831 832 832 833 833 834 835 835 836 837 838 838 838 839 839 839 839
750 752 760 780 794 793 785 786 784 785 781 768 764 761 762 761 757 758 758 762 755 740 738 737 741 760 774 777 780 771 767 772 773 776 778 781 783 785 787 788 790 791 793 795 796 798 800 802 803 805 807 808 810 811 812 813 814 815 816 817 818 819 821 822 822 823 824 824 824 825 825 826 826 826 827 828 829 830 830 831 831 831 832 832 833 834 835 835 836 837 838 838 838 838 838 839 839
741 747 764 780 789 793 784 780 782 783 778 766 761 760 766 762 754 761 754 752 751 738 740 743 738 751 763 767 770 763 764 770 773 778 780 782 784 786 788 789 791 792 794 795 796 798 799 802 803 805 807 808 810 811 813 813 815 815 816 818 818 820 821 822 823 824 824 825 825 826 826 827 827 827 828 828 829 830 830 831 831 831 832 832 833 834 834 835 836 836 837 837 838 837 838 838 839
738 752 772 784 790 794 785 780 781 780 774 767 763 762 772 769 757 756 747 745 750 745 744 745 738 743 753 757 759 760 765 770 774 779 780 783 785 786 788 789 791 792 795 795 796 798 799 802 803 804 806 808 810 811 813 814 815 816 817 818 819 821 821 823 823 824 825 825 826 827 827 828 828 828 828 829 829 830 830 831 831 831 832 832 833 834 834 835 835 836 837 837 837 837 838 838 838
746 765 778 788 796 792 781 778 775 772 772 771 767 765 772 773 765 756 753 755 751 749 748 747 744 743 749 752 756 760 765 769 773 777 780 783 785 787 789 790 791 792 794 795 797 798 800 802 803 805 806 808 810 811 812 813 815 816 817 818 819 820 821 823 824 824 825 825 826 827 828 828 828 829 829 830 830 830 831 831 831 832 832 833 833 834 834 835 835 836 836 836 836 837 837 838 838
751 768 784 791 790 782 773 773 770 768 771 772 769 767 771 772 769 762 765 769 759 758 758 754 755 753 752 753 758 762 764 768 770 774 778 781 784 786 788 790 791 792 794 795 797 798 799 801 803 804 806 808 809 811 812 813 815 816 817 818 819 820 821 823 824 825 825 826 827 827 828 828 829 829 830 830 830 830 831 831 831 832 832 833 833 834 834 834 835 835 835 836 836 837 838 838 837
748 763 788 785 773 773 770 769 769 766 767 772 771 769 773 772 768 768 771 772 767 766 763 761 765 761 759 757 758 762 763 766 769 772 776 779 784 784 786 790 791 792 794 795 797 798 799 801 803 804 805 807 809 810 812 813 814 816 817 818 819 820 821 822 823 824 825 826 827 827 828 828 829 829 830 831 830 831 831 831 831 831 832 832 833 833 833 834 834 835 835 836 836 837 838 838 838
747 759 781 774 764 771 769 765 767 765 765 771 773 772 775 772 768 770 772 775 775 768 759 759 763 761 761 760 759 761 763 764 768 772 774 778 782 783 784 788 791 792 793 795 797 798 799 801 802 804 805 807 809 810 812 813 814 816 817 818 819 820 821 822 823 824 825 826 826 827 827 828 828 829 829 830 830 830 830 830 831 831 831 832 832 832 833 833 834 835 836 837 837 838 839 839 838
753 761 770 769 765 772 769 763 765 766 767 772 776 777 775 771 770 770 771 777 776 764 753 752 755 757 758 759 759 760 762 764 766 770 774 777 780 782 784 787 790 792 793 795 796 797 799 801 802 804 805 807 808 810 812 813 814 816 817 818 819 820 821 821 822 823 824 825 826 826 827 827 828 828 829 829 830 830 830 830 830 830 831 831 831 832 832 833 834 835 836 837 838 838 839 839 838
762 770 767 770 768 770 769 762 765 767 769 777 779 776 773 775 776 770 770 772 766 755 748 748 750 752 755 757 759 761 763 764 765 767 772 775 778 781 784 786 788 790 793 794 795 798 799 801 803 804 805 806 808 810 811 812 814 816 817 818 819 820 820 821 822 822 823 824 825 825 826 826 827 828 828 828 829 829 829 829 829 830 830 830 830 831 831 832 833 834 836 838 838 838 837 837 837
765 779 774 775 773 769 766 762 766 769 773 779 778 776 776 780 778 771 770 767 760 751 745 747 749 750 753 757 759 760 762 763 764 766 769 772 776 779 782 784 787 789 791 793 795 797 799 801 803 804 805 806 808 810 811 812 814 815 816 818 819 820 821 821 822 822 822 823 823 824 825 826 826 826 827 828 828 828 828 828 828 829 829 829 829 830 831 831 833 835 837 837 837 837 836 836 836
769 780 778 777 773 765 764 764 767 770 774 779 779 781 779 777 775 774 773 766 759 752 747 747 749 751 754 758 759 760 761 762 764 765 767 769 772 778 782 783 785 789 790 792 795 796 798 800 802 804 805 806 808 809 811 812 813 815 816 817 819 820 820 821 822 822 822 822 823 823 824 825 825 826 826 827 827 827 827 828 828 828 828 828 829 830 831 832 834 835 836 836 836 835 834 834 835
770 774 775 772 769 764 764 767 768 771 773 777 782 785 781 775 775 777 773 766 760 755 753 751 751 755 756 758 758 759 761 761 762 764 766 768 770 775 780 782 783 786 789 791 794 796 797 799 801 803 805 806 808 809 810 811 813 814 815 817 818 819 820 821 821 822 822 822 823 823 823 824 824 825 825 825 826 826 827 827 827 827 827 828 829 829 830 832 833 834 834 835 836 834 833 833 833
763 768 768 765 767 764 764 768 768 772 774 775 785 792 785 776 780 786 776 766 763 760 758 754 754 758 756 757 757 758 760 760 761 763 765 767 769 772 775 779 781 784 788 791 793 795 796 799 800 802 804 806 807 809 810 811 812 814 815 816 817 818 819 820 820 821 822 822 823 823 823 823 824 824 824 825 825 826 826 827 827 827 827 827 828 829 830 831 832 833 834 834 834 833 832 832 833
760 765 767 766 766 766 765 768 769 772 776 775 783 794 788 780 786 788 776 768 766 766 765 759 758 760 757 758 758 758 759 759 761 763 765 767 768 770 773 776 778 780 785 789 792 794 796 797 800 802 803 805 807 808 809 810 812 813 814 815 816 817 818 819 820 821 821 822 822 823 823 823 823 823 823 824 825 826 826 826 826 826 826 827 828 828 829 830 831 832 833 834 834 834 833 832 834
761 764 775 773 766 770 769 767 768 771 777 772 779 797 794 787 788 783 773 771 770 771 771 763 761 762 759 759 759 759 759 759 762 763 764 767 768 770 772 774 776 778 782 786 790 793 795 796 798 801 803 804 806 807 808 810 811 812 814 815 816 817 818 819 819 820 821 822 822 822 823 823 823 823 823 824 824 825 825 826 826 826 826 826 827 828 829 829 830 831 831 832 832 833 833 833 833
765 766 777 776 772 778 770 766 768 770 775 768 777 802 800 788 784 777 772 773 774 777 775 767 764 764 761 760 761 761 760 760 761 763 765 767 769 770 771 774 775 777 780 784 788 790 793 795 797 799 802 804 805 807 808 809 811 812 813 814 816 816 817 818 819 820 821 821 822 822 822 822 823 823 823 824 824 824 825 825 825 825 826 826 827 828 828 829 829 830 830 831 831 831 832 832 832
769 773 777 777 782 785 768 765 770 773 775 766 776 798 797 789 782 775 773 774 777 780 777 772 770 767 764 762 762 762 760 760 761 762 765 767 768 770 771 773 775 777 780 783 786 788 791 794 796 798 800 803 804 806 807 809 811 811 812 814 815 816 817 818 818 819 820 821 821 821 822 822 822 823 823 823 824 824 824 825 825 825 825 826 827 827 828 828 829 829 829 829 830 830 831 831 832
775 785 785 773 775 780 769 764 767 772 774 767 777 791 790 788 782 775 775 774 776 780 779 779 780 775 769 765 763 763 762 760 761 762 765 767 768 769 771 773 775 777 779 782 785 787 790 793 795 797 799 802 803 805 807 809 810 811 812 813 814 816 817 818 818 818 819 820 820 820 821 821 821 822 822 823 824 824 824 824 824 825 825 826 827 827 828 828 828 828 828 828 829 830 830 830 831
777 784 788 771 766 775 773 766 761 766 772 771 780 787 786 788 783 777 776 776 777 780 780 780 784 780 772 769 766 765 765 763 764 764 766 767 768 770 771 773 775 778 780 781 784 786 789 793 795 797 799 801 803 805 807 808 810 811 812 812 814 815 816 817 817 818 818 819 820 819 820 820 821 821 822 822 823 824 823 823 824 824 825 826 827 827 827 827 827 828 827 828 828 829 830 830 830
776 776 779 764 755 767 776 773 762 761 771 774 779 782 780 782 782 778 777 778 779 780 781 778 778 777 773 772 772 770 769 769 769 768 768 768 769 772 773 775 777 779 781 782 784 787 790 793 795 796 798 801 803 804 807 809 810 811 812 813 813 814 816 817 817 817 818 818 819 818 818 819 820 820 821 822 822 823 823 823 824 824 825 826 826 826 826 827 827 827 827 827 828 828 829 829 829
774 768 765 754 748 762 771 770 764 762 771 774 778 781 777 775 777 777 775 776 780 780 780 779 776 775 774 776 776 774 773 773 771 770 771 770 770 773 774 777 778 779 782 784 785 788 792 794 794 796 798 800 802 804 806 808 810 811 812 813 813 814 815 816 817 817 817 818 818 817 817 818 819 820 821 821 822 822 822 822 823 824 825 825 826 826 826 826 826 827 827 827 827 828 828 828 828
764 753 749 748 751 762 761 759 757 756 768 772 773 776 775 774 774 775 774 773 777 779 778 780 779 776 776 777 778 776 775 774 771 770 772 771 772 774 774 776 778 780 783 785 788 792 794 794 793 795 797 799 801 803 805 807 809 810 811 812 813 814 815 815 816 817 817 817 817 816 816 817 819 819 820 821 821 821 821 822 823 824 825 825 825 825 825 826 826 826 826 827 827 827 827 827 827
749 745 746 739 743 757 754 753 752 748 764 771 766 768 770 771 771 770 771 772 774 777 778 780 780 780 778 777 778 777 775 772 771 771 772 772 773 774 775 777 778 782 786 788 790 793 793 793 794 795 797 798 800 802 804 806 807 809 810 811 812 813 814 814 815 816 816 816 816 816 816 817 818 819 820 820 820 820 821 822 823 824 824 824 825 825 825 825 825 826 826 826 826 826 826 826 826
743 745 748 739 742 754 751 750 749 745 761 769 763 767 768 766 767 766 767 773 775 773 775 777 778 779 778 776 778 776 773 770 771 772 772 772 774 774 775 778 779 783 788 789 789 791 792 793 795 796 796 798 799 801 803 804 806 807 809 810 811 812 813 814 814 814 815 815 816 815 815 817 817 818 819 819 819 820 821 822 822 823 823 824 824 824 825 825 825 826 826 826 826 826 826 825 825
744 744 745 745 745 750 750 748 747 746 758 766 764 769 770 765 763 764 765 770 771 766 767 771 772 774 775 775 778 776 772 771 771 771 771 772 773 774 776 778 780 783 786 787 787 789 791 792 794 796 797 798 799 801 802 803 805 806 808 809 810 811 812 813 813 813 813 814 814 814 814 816 817 817 818 818 819 820 821 822 822 823 823 823 824 824 824 825 825 825 825 826 826 825 825 825 825
744 743 745 746 737 744 759 755 747 745 750 759 764 769 773 769 764 763 762 763 763 763 763 763 764 767 768 769 772 773 773 772 771 770 769 770 772 773 775 777 779 781 782 783 785 787 789 791 793 795 796 797 798 800 801 803 804 805 807 808 809 810 811 812 812 812 813 813 814 814 814 815 815 816 816 817 818 819 820 821 822 822 822 823 823 824 824 824 825 825 825 825 825 825 825 824 825
740 735 738 737 726 732 746 745 745 747 748 753 762 776 779 772 771 766 759 758 761 762 763 764 762 762 763 765 767 768 769 769 769 769 767 767 769 771 773 776 777 779 779 780 783 785 787 789 791 793 795 797 798 799 800 802 803 804 805 806 807 808 808 810 811 812 812 812 813 813 814 814 814 815 815 816 817 818 819 820 821 821 822 822 822 823 824 824 824 824 824 824 824 824 824 824 825
742 730 725 724 723 728 731 735 743 757 767 758 760 788 790 772 772 770 759 761 764 762 762 765 764 761 761 764 765 765 765 764 764 765 765 765 767 770 772 775 777 777 776 778 782 784 786 788 790 792 794 795 797 798 799 801 802 803 804 805 806 806 807 808 810 811 812 812 813 813 813 813 814 814 814 815 816 817 818 819 820 820 821 821 822 822 823 823 823 823 823 823 823 824 824 824 824
749 728 716 718 724 733 735 734 740 755 770 760 755 787 797 777 772 767 758 761 763 762 763 762 762 762 762 762 763 763 762 762 762 762 763 764 766 769 771 774 775 776 776 777 781 783 785 788 789 791 792 794 796 797 798 800 801 802 803 803 804 805 806 807 808 810 811 811 812 812 812 812 813 813 813 814 815 816 817 818 818 819 820 820 821 821 822 822 822 822 822 822 823 823 823 823 824
745 719 712 719 726 734 733 733 738 742 753 759 754 772 795 789 773 761 756 761 763 762 764 762 760 762 762 761 762 762 760 759 760 761 762 763 765 767 769 772 774 775 776 777 780 782 784 786 788 790 791 793 795 796 797 799 800 801 802 803 804 804 805 806 808 809 810 811 811 812 812 812 812 812 812 812 813 814 815 816 817 818 819 819 820 820 821 821 821 821 821 821 822 823 823 823 823
733 714 714 719 724 731 729 733 739 731 745 771 761 760 791 793 767 754 756 761 764 761 761 761 760 760 760 760 761 761 759 758 758 759 760 761 762 765 768 770 773 774 776 777 778 781 784 785 787 789 790 792 793 795 796 798 799 801 801 802 803 805 805 806 808 809 810 810 811 812 811 811 811 811 811 811 812 813 814 815 816 817 817 818 819 820 820 820 820 820 820 820 821 822 822 822 822
718 712 719 721 724 728 727 733 737 733 751 774 764 759 787 791 765 758 761 762 763 758 754 755 755 756 756 757 757 757 758 758 757 756 757 758 760 763 766 769 771 773 774 776 778 780 783 784 785 787 789 790 792 793 795 797 798 800 801 801 803 804 804 806 807 808 809 810 810 811 811 809 809 809 809 810 810 811 812 813 815 816 816 817 818 818 819 819 819 819 819 820 820 820 821 821 821
711 717 727 729 728 724 727 730 733 752 770 767 755 753 773 787 772 760 759 755 753 750 748 751 753 754 754 753 753 753 755 756 756 755 755 756 759 761 764 768 770 772 774 775 777 779 781 782 784 785 787 788 790 791 793 795 797 798 800 801 801 803 804 805 806 806 807 808 808 809 809 808 807 807 808 808 809 810 811 812 813 814 815 816 816 817 817 818 818 818 819 819 819 819 820 820 820
719 729 735 743 742 735 743 746 747 777 790 764 746 741 755 779 772 753 749 742 738 741 744 749 754 754 753 751 750 750 752 753 754 755 755 756 760 761 764 767 769 772 773 774 776 778 779 780 782 783 784 785 787 789 791 794 796 797 798 800 800 801 803 803 803 804 805 806 806 806 806 806 806 806 806 807 808 808 809 810 812 813 814 814 815 815 816 816 817 817 817 817 818 818 818 819 819
728 736 744 758 765 764 774 777 772 785 783 752 735 736 748 760 751 739 739 733 730 733 736 744 751 752 751 750 749 748 749 751 752 754 754 755 760 763 764 767 769 771 773 773 775 776 777 778 779 781 783 784 785 787 789 792 794 796 797 797 797 799 800 800 800 802 803 803 804 804 804 804 804 804 805 805 806 807 808 808 810 811 812 813 814 814 815 815 816 816 816 817 816 816 817 817 818
734 739 747 761 773 786 795 786 775 775 764 738 726 738 752 752 740 732 730 726 725 728 731 739 745 748 751 750 748 748 748 749 751 754 755 754 756 761 764 766 768 770 772 773 774 775 776 776 777 779 782 784 785 786 787 788 790 792 793 795 797 798 797 797 798 799 801 802 802 802 803 802 802 802 803 804 805 806 806 807 808 810 811 812 813 813 814 814 815 815 815 816 815 815 815 816 816
727 724 732 747 755 774 784 774 772 771 758 741 733 746 760 757 742 726 720 721 723 727 729 734 741 744 747 749 748 748 749 749 750 755 760 759 756 758 763 765 767 769 771 772 773 775 775 776 776 777 779 783 786 787 786 787 788 789 791 794 797 797 796 796 797 798 799 799 800 800 801 801 800 800 801 802 804 805 805 805 807 808 810 811 811 812 813 813 814 814 814 815 815 815 815 815 815
720 710 727 743 734 740 751 750 749 748 752 749 742 745 745 739 730 716 717 727 728 731 732 734 742 745 744 748 748 746 748 749 750 755 765 767 762 761 763 766 768 769 771 772 772 774 776 777 777 776 777 780 783 784 785 785 786 789 789 791 794 796 797 797 796 796 797 797 797 798 799 799 799 799 799 801 802 803 803 804 805 807 808 809 810 811 811 812 813 813 814 814 814 814 814 814 814
720 716 729 725 707 716 741 746 734 736 758 757 742 746 742 736 737 723 721 735 737 737 738 737 742 746 749 752 748 746 747 749 751 755 764 770 768 765 764 764 767 769 769 770 771 773 775 777 777 777 779 780 781 783 784 783 785 788 790 793 796 797 797 796 795 795 795 795 796 796 797 798 798 798 798 799 800 801 802 802 804 806 806 808 809 809 810 811 811 812 812 813 813 814 814 813 813
724 728 721 706 700 711 733 754 754 758 775 763 744 752 754 756 760 741 728 737 741 741 742 743 744 747 754 756 752 749 746 747 750 753 762 770 769 769 768 766 767 768 768 768 769 771 773 775 776 777 779 781 784 787 786 785 786 789 792 796 798 796 795 794 793 793 793 794 795 795 796 796 796 797 797 797 798 799 800 801 802 804 805 806 807 808 809 810 810 811 811 812 813 813 813 813 813
710 713 706 713 732 738 739 756 767 770 777 770 754 753 753 755 756 745 735 736 741 744 743 747 751 751 754 755 754 753 747 747 750 750 756 762 763 764 767 768 767 766 766 767 768 770 771 773 775 776 779 780 783 786 786 787 788 789 791 793 793 793 792 792 791 792 792 793 793 794 794 794 794 795 796 796 797 798 799 800 801 802 803 804 806 807 808 808 809 810 810 811 811 811 812 812 812
704 706 706 713 729 738 737 742 750 760 773 776 769 768 766 751 737 736 739 736 740 747 746 747 751 754 756 756 756 754 750 749 750 749 750 752 754 755 758 761 763 763 765 765 767 769 770 772 773 775 777 778 780 782 784 785 786 786 788 788 789 789 790 790 790 791 791 791 791 792 792 792 792 793 794 795 796 796 797 798 800 801 801 803 804 805 806 807 807 808 808 809 809 809 810 810 811
716 724 725 721 720 724 730 731 731 745 764 769 773 784 776 743 723 730 738 737 739 745 747 748 748 751 753 753 753 751 749 749 749 749 750 749 750 751 752 756 759 761 763 764 766 767 768 771 772 773 775 775 777 780 782 783 783 783 784 785 786 787 788 789 789 789 789 790 790 791 791 791 791 792 793 794 795 795 796 798 798 799 800 801 802 802 804 804 805 806 807 807 807 807 808 808 809
711 720 721 721 720 726 743 747 731 729 745 750 760 780 767 731 720 728 731 735 738 740 745 747 745 746 748 748 748 747 747 748 748 747 748 749 749 751 752 754 756 759 761 762 764 765 767 769 770 772 773 775 777 780 781 781 781 782 783 783 785 786 787 788 788 788 788 789 790 790 790 790 790 791 792 793 794 794 795 796 797 797 798 799 800 801 802 803 803 804 805 806 806 806 806 806 807